Weather History for VTUU - January, 2013

Change the Weather History Date:

Wednesday, January 2, 2013

  Actual Average Record
Temperature  
Mean Temperature 74 °F -  
Max Temperature 90 °F 88 °F - ()
Min Temperature 59 °F 63 °F - ()
Cooling Degree Days 10    
Growing Degree Days 24 (Base 50)    
Moisture  
Dew Point 62 °F    
Average Humidity 63    
Maximum Humidity 88    
Minimum Humidity 38    
Precipitation  
Precipitation 0.00 in 0.00 in - ()
Sea Level Pressure  
Sea Level Pressure 29.90 in    
Wind  
Wind Speed 3 mph ()    
Max Wind Speed 6 mph    
Max Gust Speed -    
Visibility 5.1 miles    
Events      
T = Trace of Precipitation, MM = Missing Value Source: Averaged Metar Reports

Daily Weather History Graph

Daily Weather History Graph

Search for Another Location

Airport or City:

Trip Planner

Search our weather history database for the weather conditions in past years. The results will help you decide how hot, cold, wet, or windy it might be!

Date:

Astronomy

Jan. 02, 2013 Rise Set
Actual Time 6:27 AM ICT 5:41 PM ICT
Civil Twilight 6:03 AM ICT 6:05 PM ICT
Nautical Twilight 5:37 AM ICT 6:31 PM ICT
Astronomical Twilight 5:10 AM ICT 6:58 PM ICT
Moon 9:52 PM ICT (1/2) 9:36 AM ICT (1/2)
Length of Visible Light 12h 01m
Length of Day
11h 14m
Waning Gibbous, 79% of the Moon is Illuminated
Jan 2
Waning Gibbous
Jan 5
Last Quarter
Jan 12
New
Jan 19
First Quarter
Jan 27
Full

Hourly Weather History & Observations

Time (ICT) Temp. Heat Index Dew Point Humidity Pressure Visibility Wind Dir Wind Speed Gust Speed Precip Events Conditions
1:00 AM 67 °F - 58 °F 64% 29.93 in 6 mi NE 3.5 mph - -   Mist
1:00 AM 66.2 °F - 57.2 °F 73% 29.92 in 5.6 mi NE 3.5 mph - N/A   Unknown
2:00 AM 66.2 °F - 57.2 °F 73% 29.89 in 5.6 mi NNE 3.5 mph - N/A   Unknown
4:00 AM 62.6 °F - 59.0 °F 88% 29.89 in 5.6 mi NNE 2.3 mph - N/A   Unknown
5:00 AM 60.8 °F - 57.2 °F 88% 29.89 in 5.0 mi NE 2.3 mph - N/A   Unknown
6:00 AM 60.8 °F - 57.2 °F 88% 29.89 in 4.3 mi NE 3.5 mph - N/A   Unknown
7:00 AM 61 °F - 58 °F 85% 29.94 in 4 mi NE 2.3 mph - -   Mist
8:00 AM 64.4 °F - 59.0 °F 83% 29.95 in 5.0 mi NE 5.8 mph - N/A   Unknown
9:00 AM 68.0 °F - 60.8 °F 78% 29.98 in 5.0 mi NE 5.8 mph - N/A   Unknown
10:00 AM 75.2 °F - 64.4 °F 69% 29.98 in 5.6 mi ENE 3.5 mph - N/A   Unknown
11:00 AM 78.8 °F - 62.6 °F 57% 29.95 in - NW 2.3 mph - N/A   Clear
12:00 PM 82.4 °F 83.4 °F 62.6 °F 51% 29.92 in - WNW 3.5 mph - N/A   Clear
1:00 PM 86 °F - 64 °F 38% 29.91 in 6 mi WNW 3.5 mph - -   Scattered Clouds
1:00 PM 86.0 °F 87.3 °F 64.4 °F 48% 29.89 in 6.2 mi WNW 5.8 mph - N/A   Mostly Cloudy
2:00 PM 86.0 °F 86.6 °F 62.6 °F 45% 29.86 in 6.2 mi NNW 5.8 mph - N/A   Mostly Cloudy
3:00 PM 86.0 °F 86.1 °F 60.8 °F 43% 29.83 in - NNE 5.8 mph - N/A   Clear
4:00 PM 89.6 °F 90.1 °F 62.6 °F 40% 29.83 in - ENE 4.6 mph - N/A   Clear
5:00 PM 87.8 °F 88.5 °F 62.6 °F 43% 29.86 in - North 2.3 mph - N/A   Clear
5:30 PM 84.2 °F 84.4 °F 60.8 °F 45% 29.86 in 5.6 mi North 2.3 mph - N/A   Unknown
6:00 PM 84.2 °F 84.4 °F 60.8 °F 45% 29.86 in 5.0 mi West 1.2 mph - N/A   Unknown
7:00 PM 80 °F - 65 °F 52% 29.90 in 4 mi Calm Calm - -   Haze
7:00 PM 80.6 °F 82.3 °F 64.4 °F 58% 29.89 in 4.3 mi Calm Calm - N/A   Unknown
8:00 PM 77.0 °F - 64.4 °F 65% 29.92 in 4.3 mi NE 2.3 mph - N/A   Unknown
9:00 PM 77.0 °F - 66.2 °F 69% 29.92 in 4.3 mi Calm Calm - N/A   Unknown
10:00 PM 73.4 °F - 66.2 °F 78% 29.92 in 4.3 mi Calm Calm - N/A   Unknown
11:00 PM 73.4 °F - 66.2 °F 78% 29.92 in 4.3 mi Calm Calm - N/A   Unknown